| time (UTC) | temp C | wind direction | speed KPH | gust KPH | rain 1hr cm | rain 24hr cm | rain mn cm | humidity % | barometer mb |
| 20260507142001 | 13 | 175 | 12.9 | 14.5 | 0.00 | 0.00 | 0.00 | 80 | 1020.0 |
| 20260507141002 | 13 | 183 | 16.1 | 22.5 | 0.00 | 0.00 | 0.00 | 79 | 1020.0 |
| 20260507140001 | 14 | 175 | 9.7 | 11.3 | 0.00 | 0.00 | 0.00 | 79 | 1020.0 |
| 20260507135002 | 13 | 163 | 14.5 | 19.3 | 0.00 | 0.00 | 0.00 | 80 | 1020.0 |
| 20260507134001 | 13 | 184 | 20.9 | 27.4 | 0.00 | 0.00 | 0.00 | 80 | 1020.0 |
| 20260507133002 | 13 | 164 | 20.9 | 25.7 | 0.00 | 0.00 | 0.00 | 80 | 1020.0 |
| 20260507132001 | 13 | 171 | 22.5 | 22.5 | 0.00 | 0.00 | 0.00 | 81 | 1020.0 |
| 20260507131002 | 14 | 159 | 12.9 | 22.5 | 0.00 | 0.00 | 0.00 | 80 | 1020.0 |
| 20260507130001 | 13 | 169 | 14.5 | 20.9 | 0.00 | 0.00 | 0.00 | 81 | 1020.0 |
| 20260507125002 | 14 | 167 | 14.5 | 22.5 | 0.00 | 0.00 | 0.00 | 80 | 1020.0 |
| 20260507124001 | 13 | 171 | 20.9 | 25.7 | 0.00 | 0.00 | 0.00 | 80 | 1020.0 |
| 20260507123002 | 14 | 173 | 25.7 | 29.0 | 0.00 | 0.00 | 0.00 | 79 | 1020.0 |
| 20260507122001 | 13 | 172 | 27.4 | 30.6 | 0.00 | 0.00 | 0.00 | 81 | 1020.0 |
| 20260507121001 | 14 | 169 | 17.7 | 20.9 | 0.00 | 0.00 | 0.00 | 78 | 1020.0 |
| 20260507120002 | 14 | 181 | 24.1 | 27.4 | 0.00 | 0.00 | 0.00 | 79 | 1020.0 |
| 20260507115002 | 14 | 167 | 24.1 | 25.7 | 0.00 | 0.00 | 0.00 | 78 | 1020.0 |
| 20260507114001 | 13 | 183 | 24.1 | 25.7 | 0.00 | 0.00 | 0.00 | 80 | 1021.0 |
| 20260507113002 | 14 | 181 | 24.1 | 25.7 | 0.00 | 0.00 | 0.00 | 80 | 1021.0 |
| 20260507112001 | 14 | 171 | 20.9 | 20.9 | 0.00 | 0.00 | 0.00 | 80 | 1021.0 |
| 20260507111001 | 14 | 175 | 9.7 | 20.9 | 0.00 | 0.00 | 0.00 | 79 | 1020.0 |
| 20260507110002 | 13 | 170 | 19.3 | 27.4 | 0.00 | 0.00 | 0.00 | 78 | 1020.0 |
| 20260507105001 | 14 | 168 | 16.1 | 27.4 | 0.00 | 0.00 | 0.00 | 77 | 1021.0 |
| 20260507104002 | 14 | 171 | 14.5 | 19.3 | 0.00 | 0.00 | 0.00 | 78 | 1021.0 |
| 20260507103002 | 13 | 174 | 20.9 | 24.1 | 0.00 | 0.00 | 0.00 | 79 | 1021.0 |
| 20260507102002 | 13 | 171 | 20.9 | 27.4 | 0.00 | 0.00 | 0.00 | 78 | 1021.0 |
| 20260507101001 | 13 | 167 | 27.4 | 30.6 | 0.00 | 0.00 | 0.00 | 78 | 1020.0 |
| 20260507100002 | 13 | 172 | 24.1 | 29.0 | 0.00 | 0.00 | 0.00 | 77 | 1020.0 |
| 20260507095001 | 13 | 172 | 24.1 | 27.4 | 0.00 | 0.00 | 0.00 | 78 | 1020.0 |
| 20260507094002 | 13 | 166 | 20.9 | 24.1 | 0.00 | 0.00 | 0.00 | 79 | 1021.0 |
| 20260507093002 | 13 | 167 | 14.5 | 19.3 | 0.00 | 0.00 | 0.00 | 78 | 1021.0 |
| 20260507092002 | 13 | 146 | 22.5 | 25.7 | 0.00 | 0.00 | 0.00 | 79 | 1021.0 |
| 20260507091001 | 13 | 159 | 19.3 | 27.4 | 0.00 | 0.00 | 0.00 | 78 | 1021.0 |
| 20260507090006 | 13 | 172 | 19.3 | 22.5 | 0.00 | 0.00 | 0.00 | 79 | 1021.0 |
| 20260507085001 | 13 | 168 | 19.3 | 22.5 | 0.00 | 0.00 | 0.00 | 79 | 1021.0 |
| 20260507084001 | 13 | 166 | 19.3 | 25.7 | 0.00 | 0.00 | 0.00 | 79 | 1021.0 |
| 20260507083002 | 13 | 160 | 25.7 | 30.6 | 0.00 | 0.00 | 0.00 | 80 | 1020.0 |
| 20260507082001 | 13 | 164 | 19.3 | 25.7 | 0.00 | 0.00 | 0.00 | 80 | 1020.0 |
| 20260507081002 | 13 | 164 | 19.3 | 29.0 | 0.00 | 0.00 | 0.00 | 79 | 1020.0 |
| 20260507080003 | 13 | 166 | 19.3 | 25.7 | 0.00 | 0.00 | 0.00 | 78 | 1020.0 |
| 20260507075001 | 13 | 173 | 29.0 | 35.4 | 0.00 | 0.00 | 0.00 | 78 | 1021.0 |
| 20260507074002 | 13 | 177 | 17.7 | 25.7 | 0.00 | 0.00 | 0.00 | 78 | 1020.0 |
| 20260507073002 | 13 | 173 | 14.5 | 29.0 | 0.00 | 0.00 | 0.00 | 78 | 1020.0 |
| 20260507072001 | 13 | 171 | 14.5 | 19.3 | 0.00 | 0.00 | 0.00 | 79 | 1021.0 |
| 20260507071001 | 13 | 181 | 12.9 | 20.9 | 0.00 | 0.00 | 0.00 | 77 | 1020.0 |
| 20260507070004 | 13 | 172 | 24.1 | 27.4 | 0.00 | 0.00 | 0.00 | 77 | 1021.0 |
| 20260507065001 | 13 | 172 | 14.5 | 20.9 | 0.00 | 0.00 | 0.00 | 78 | 1020.0 |
| 20260507064002 | 13 | 178 | 24.1 | 25.7 | 0.00 | 0.00 | 0.00 | 77 | 1020.0 |
| 20260507063001 | 13 | 186 | 16.1 | 17.7 | 0.00 | 0.00 | 0.00 | 75 | 1020.0 |
| 20260507062002 | 13 | 172 | 12.9 | 20.9 | 0.00 | 0.00 | 0.00 | 77 | 1020.0 |
| 20260507061001 | 13 | 174 | 11.3 | 16.1 | 0.00 | 0.00 | 0.00 | 79 | 1020.0 |
| 20260507060002 | 13 | 179 | 11.3 | 17.7 | 0.00 | 0.00 | 0.00 | 79 | 1020.0 |
| 20260507055002 | 13 | 194 | 17.7 | 19.3 | 0.00 | 0.00 | 0.00 | 81 | 1020.0 |
| 20260507054001 | 12 | 185 | 14.5 | 20.9 | 0.00 | 0.00 | 0.00 | 82 | 1020.0 |
| 20260507053002 | 12 | 203 | 14.5 | 17.7 | 0.00 | 0.00 | 0.00 | 83 | 1020.0 |
| 20260507052001 | 12 | 195 | 16.1 | 17.7 | 0.00 | 0.00 | 0.00 | 84 | 1020.0 |
| 20260507051002 | 12 | 204 | 9.7 | 11.3 | 0.00 | 0.00 | 0.00 | 85 | 1020.0 |
| 20260507050001 | 12 | 192 | 11.3 | 11.3 | 0.00 | 0.00 | 0.00 | 85 | 1020.0 |
| 20260507045002 | 11 | 197 | 6.4 | 9.7 | 0.00 | 0.00 | 0.00 | 88 | 1020.0 |
| 20260507044001 | 11 | 186 | 6.4 | 8.0 | 0.00 | 0.00 | 0.00 | 91 | 1020.0 |
| 20260507043002 | 10 | 110 | 3.2 | 3.2 | 0.00 | 0.00 | 0.00 | 94 | 1020.0 |
| 20260507042001 | 9 | 231 | 3.2 | 4.8 | 0.00 | 0.00 | 0.00 | 96 | 1020.0 |
| 20260507041001 | 8 | 194 | 1.6 | 3.2 | 0.00 | 0.00 | 0.00 | 96 | 1020.0 |
| 20260507040001 | 8 | 176 | 3.2 | 3.2 | 0.00 | 0.00 | 0.00 | 96 | 1019.0 |
| 20260507035001 | 8 | 120 | 4.8 | 4.8 | 0.00 | 0.00 | 0.00 | 96 | 1020.0 |
| 20260507034002 | 7 | 354 | 1.6 | 3.2 | 0.00 | 0.00 | 0.00 | 96 | 1019.0 |
| 20260507033001 | 7 | 29 | 3.2 | 3.2 | 0.00 | 0.00 | 0.00 | 96 | 1019.0 |
| 20260507032002 | 7 | 5 | 3.2 | 3.2 | 0.00 | 0.00 | 0.00 | 96 | 1019.0 |
| 20260507031001 | 7 | 24 | 4.8 | 4.8 | 0.00 | 0.00 | 0.00 | 96 | 1019.0 |
| 20260507030002 | 7 | 43 | 1.6 | 3.2 | 0.00 | 0.00 | 0.00 | 96 | 1019.0 |
| 20260507025001 | 7 | 46 | 4.8 | 4.8 | 0.00 | 0.00 | 0.00 | 95 | 1019.0 |
| 20260507024001 | 7 | 64 | 1.6 | 6.4 | 0.00 | 0.00 | 0.00 | 96 | 1019.0 |
| 20260507023002 | 7 | 48 | 0.0 | 3.2 | 0.00 | 0.00 | 0.00 | 96 | 1019.0 |
| 20260507022001 | 7 | 16 | 3.2 | 4.8 | 0.00 | 0.00 | 0.00 | 96 | 1019.0 |
| 20260507021002 | 7 | 99 | 3.2 | 4.8 | 0.00 | 0.00 | 0.00 | 95 | 1019.0 |
| 20260507020001 | 8 | 6 | 3.2 | 4.8 | 0.00 | 0.00 | 0.00 | 95 | 1019.0 |
| 20260507015001 | 8 | 45 | 0.0 | 1.6 | 0.00 | 0.00 | 0.00 | 95 | 1019.0 |
| 20260507014002 | 8 | 120 | 4.8 | 4.8 | 0.00 | 0.00 | 0.00 | 94 | 1019.0 |
| 20260507013001 | 8 | 154 | 3.2 | 4.8 | 0.00 | 0.00 | 0.00 | 95 | 1019.0 |
| 20260507012002 | 8 | 8 | 1.6 | 3.2 | 0.00 | 0.00 | 0.00 | 94 | 1019.0 |
| 20260507011001 | 8 | 144 | 0.0 | 1.6 | 0.00 | 0.00 | 0.00 | 94 | 1019.0 |
| 20260507010002 | 8 | 123 | 1.6 | 3.2 | 0.00 | 0.00 | 0.00 | 94 | 1019.0 |
| 20260507005001 | 8 | 246 | 0.0 | 1.6 | 0.00 | 0.00 | 0.00 | 94 | 1019.0 |
| 20260507004001 | 8 | 300 | 3.2 | 3.2 | 0.00 | 0.00 | 0.00 | 94 | 1019.0 |
| 20260507003001 | 8 | 134 | 0.0 | 0.0 | 0.00 | 0.00 | 0.00 | 95 | 1019.0 |
| 20260507002002 | 8 | 217 | 0.0 | 3.2 | 0.00 | 0.00 | 0.00 | 94 | 1019.0 |
| 20260507001001 | 8 | 167 | 0.0 | 3.2 | 0.00 | 0.00 | 0.00 | 95 | 1019.0 |
| 20260507000002 | 8 | 174 | 0.0 | 1.6 | 0.00 | 0.00 | 0.00 | 94 | 1019.0 |
| 20260506235001 | 8 | 169 | 6.4 | 6.4 | 0.00 | 0.00 | 0.00 | 94 | 1019.0 |
| 20260506234001 | 8 | 209 | 1.6 | 4.8 | 0.00 | 0.00 | 0.00 | 95 | 1019.0 |
| 20260506233001 | 8 | 226 | 3.2 | 4.8 | 0.00 | 0.00 | 0.00 | 95 | 1019.0 |
| 20260506232001 | 8 | 237 | 0.0 | 0.0 | 0.00 | 0.00 | 0.00 | 94 | 1019.0 |
| 20260506231002 | 8 | 201 | 1.6 | 3.2 | 0.00 | 0.00 | 0.00 | 95 | 1019.0 |
| 20260506230001 | 8 | 129 | 0.0 | 0.0 | 0.00 | 0.00 | 0.00 | 95 | 1019.0 |
| 20260506225002 | 8 | 113 | 0.0 | 1.6 | 0.00 | 0.00 | 0.00 | 94 | 1019.0 |
| 20260506224001 | 9 | 140 | 0.0 | 0.0 | 0.00 | 0.00 | 0.00 | 94 | 1019.0 |
| 20260506223001 | 9 | 309 | 0.0 | 0.0 | 0.00 | 0.00 | 0.00 | 94 | 1019.0 |
| 20260506222002 | 9 | 297 | 0.0 | 0.0 | 0.00 | 0.00 | 0.00 | 94 | 1019.0 |
| 20260506221001 | 9 | 159 | 0.0 | 1.6 | 0.00 | 0.00 | 0.00 | 94 | 1019.0 |
| 20260506220002 | 9 | 135 | 0.0 | 1.6 | 0.00 | 0.00 | 0.00 | 94 | 1019.0 |
| 20260506215001 | 9 | 147 | 1.6 | 1.6 | 0.00 | 0.00 | 0.00 | 94 | 1019.0 |
| 20260506214002 | 9 | 216 | 0.0 | 0.0 | 0.00 | 0.00 | 0.00 | 94 | 1019.0 |
| 20260506213001 | 10 | 257 | 0.0 | 0.0 | 0.00 | 0.00 | 0.00 | 94 | 1019.0 |
| 20260506212002 | 10 | 184 | 1.6 | 3.2 | 0.00 | 0.00 | 0.00 | 95 | 1019.0 |
| 20260506211001 | 10 | 211 | 0.0 | 3.2 | 0.00 | 0.00 | 0.00 | 95 | 1019.0 |
| 20260506210001 | 9 | 161 | 0.0 | 0.0 | 0.00 | 0.00 | 0.00 | 94 | 1019.0 |
| 20260506205002 | 9 | 141 | 0.0 | 1.6 | 0.00 | 0.00 | 0.00 | 94 | 1019.0 |
| 20260506204001 | 9 | 119 | 0.0 | 0.0 | 0.00 | 0.00 | 0.00 | 93 | 1019.0 |
| 20260506203002 | 10 | 179 | 0.0 | 1.6 | 0.00 | 0.00 | 0.00 | 93 | 1019.0 |
| 20260506202002 | 10 | 173 | 3.2 | 4.8 | 0.00 | 0.00 | 0.00 | 94 | 1019.0 |
| 20260506201002 | 10 | 157 | 4.8 | 4.8 | 0.00 | 0.00 | 0.00 | 94 | 1019.0 |
| 20260506200001 | 10 | 156 | 3.2 | 3.2 | 0.00 | 0.00 | 0.00 | 94 | 1019.0 |
| 20260506195001 | 10 | 160 | 1.6 | 3.2 | 0.00 | 0.00 | 0.00 | 93 | 1019.0 |
| 20260506194002 | 10 | 210 | 0.0 | 1.6 | 0.00 | 0.00 | 0.00 | 93 | 1019.0 |
| 20260506193001 | 10 | 177 | 3.2 | 3.2 | 0.00 | 0.00 | 0.00 | 93 | 1019.0 |
| 20260506192002 | 11 | 182 | 3.2 | 3.2 | 0.00 | 0.00 | 0.00 | 92 | 1019.0 |
| 20260506191001 | 11 | 180 | 3.2 | 6.4 | 0.00 | 0.00 | 0.00 | 92 | 1019.0 |
| 20260506190001 | 11 | 174 | 4.8 | 4.8 | 0.00 | 0.00 | 0.00 | 92 | 1019.0 |
| 20260506185001 | 11 | 157 | 3.2 | 4.8 | 0.00 | 0.00 | 0.00 | 91 | 1019.0 |
| 20260506184001 | 11 | 167 | 6.4 | 8.0 | 0.00 | 0.00 | 0.00 | 91 | 1019.0 |
| 20260506183002 | 11 | 170 | 6.4 | 8.0 | 0.00 | 0.00 | 0.00 | 90 | 1019.0 |
| 20260506182001 | 11 | 189 | 6.4 | 6.4 | 0.00 | 0.00 | 0.00 | 90 | 1018.0 |
| 20260506181002 | 11 | 182 | 3.2 | 4.8 | 0.00 | 0.00 | 0.00 | 89 | 1018.0 |
| 20260506180001 | 11 | 179 | 3.2 | 4.8 | 0.00 | 0.00 | 0.00 | 89 | 1018.0 |
| 20260506175002 | 11 | 180 | 4.8 | 9.7 | 0.00 | 0.00 | 0.00 | 89 | 1018.0 |
| 20260506174001 | 11 | 173 | 1.6 | 4.8 | 0.00 | 0.00 | 0.00 | 89 | 1018.0 |
| 20260506173001 | 11 | 170 | 8.0 | 11.3 | 0.00 | 0.00 | 0.00 | 89 | 1018.0 |
| 20260506172002 | 11 | 168 | 8.0 | 9.7 | 0.00 | 0.00 | 0.00 | 89 | 1018.0 |
| 20260506171001 | 12 | 162 | 8.0 | 9.7 | 0.00 | 0.00 | 0.00 | 88 | 1018.0 |
| 20260506170002 | 12 | 164 | 11.3 | 14.5 | 0.00 | 0.00 | 0.00 | 87 | 1018.0 |
| 20260506165001 | 12 | 164 | 16.1 | 17.7 | 0.00 | 0.00 | 0.00 | 86 | 1018.0 |
| 20260506164002 | 12 | 171 | 12.9 | 12.9 | 0.00 | 0.00 | 0.00 | 85 | 1018.0 |
| 20260506163001 | 12 | 174 | 11.3 | 14.5 | 0.00 | 0.00 | 0.00 | 84 | 1018.0 |
| 20260506162002 | 13 | 172 | 14.5 | 17.7 | 0.00 | 0.00 | 0.00 | 82 | 1018.0 |
| 20260506161001 | 13 | 170 | 9.7 | 14.5 | 0.00 | 0.00 | 0.00 | 81 | 1018.0 |
| 20260506160002 | 13 | 176 | 11.3 | 14.5 | 0.00 | 0.00 | 0.00 | 82 | 1018.0 |
| 20260506155001 | 13 | 178 | 17.7 | 22.5 | 0.00 | 0.00 | 0.00 | 81 | 1018.0 |
| 20260506154002 | 13 | 170 | 11.3 | 14.5 | 0.00 | 0.00 | 0.00 | 82 | 1018.0 |
| 20260506153001 | 13 | 171 | 17.7 | 19.3 | 0.00 | 0.00 | 0.00 | 81 | 1018.0 |
| 20260506152002 | 13 | 169 | 11.3 | 19.3 | 0.00 | 0.00 | 0.00 | 80 | 1018.0 |
| 20260506151001 | 13 | 172 | 19.3 | 19.3 | 0.00 | 0.00 | 0.00 | 79 | 1018.0 |
| 20260506150002 | 13 | 170 | 19.3 | 20.9 | 0.00 | 0.00 | 0.00 | 78 | 1018.0 |
| 20260506145001 | 13 | 167 | 12.9 | 16.1 | 0.00 | 0.00 | 0.00 | 77 | 1018.0 |
| 20260506144001 | 13 | 175 | 12.9 | 20.9 | 0.00 | 0.00 | 0.00 | 76 | 1018.0 |
| 20260506143002 | 13 | 185 | 19.3 | 24.1 | 0.00 | 0.00 | 0.00 | 76 | 1018.0 |